Epoch 2019 Apr. 27.0 TT = JDT 2458600.5
T 2019 May 11.85418 TT Rudenko
q 1.3601858 (2000.0) P Q
n 0.00968390 Peri. 251.24812 +0.10162093 -0.59234227
a 21.7989665 Node 233.58934 +0.67179632 -0.55169583
e 0.9376032 Incl. 83.27856 -0.73373217 -0.58716466
P 102
From 276 observations 2018 Nov. 16-2020 May 21, mean residual 0".4.